Date String (YYYY-MM-DD hh:mm:ss) UTC,Instrument flags,absolute air pressure of the measurement (hPa),sample flow rate (lpm),inlet stack bypass flow (lpm),air temperature of the measurement (°C),ambient temperature measured by the external sensor (°C),aerosol sample conditioner tube jacket temperature (°C),OPC LED temperature (°C),internal box temperature (°C),relative humidity of the measurement (%),span deviation,mass concentration of particles derived from Lorenz-Mie calculation of OPC scattering (μg/m³),mass concentration of particles derived from Lorenz-Mie calculation of OPC scattering (μg/m³),mass concentration of particles derived from Lorenz-Mie calculation of OPC scattering (μg/m³)
DateTimeUTC,F1_M11,P_M11,Q1_M11,Q2_M11,T1_M11,T2_M11,T3_M11,T4_M11,T5_M11,U1_M11,ZSPAN_M11,X2_M11,X0_M11,X1_M11
2024-04-19 14:00:00,SystemResetWarning,0832.7,5.00,000.00,019.7,019.1,000.0,028.2,021.5,025.5,0000.0,0005.16,0008.14,0004.86
2024-04-19 14:01:00,SystemResetWarning,0832.7,5.00,000.00,019.7,019.1,000.0,028.2,021.4,025.5,0000.0,0005.13,0008.16,0004.84
2024-04-19 14:02:00,SystemResetWarning,0832.7,5.00,000.00,019.7,019.1,000.0,028.2,021.5,025.5,0000.0,0005.10,0008.00,0004.79
2024-04-19 14:03:00,SystemResetWarning,0832.8,5.00,000.00,019.7,019.1,000.0,028.2,021.5,025.5,0000.0,0005.01,0007.84,0004.71
2024-04-19 14:04:00,SystemResetWarning,0832.8,5.00,000.00,019.7,019.1,000.0,028.2,021.4,025.4,0000.0,0004.96,0007.80,0004.65
2024-04-19 14:05:00,SystemResetWarning,0832.8,4.99,000.00,019.7,019.1,000.0,028.2,021.5,025.4,0000.0,0004.92,0007.74,0004.61
2024-04-19 14:06:00,SystemResetWarning,0832.8,5.00,000.00,019.7,019.1,000.0,028.2,021.4,025.4,0000.0,0004.88,0007.71,0004.56
2024-04-19 14:07:00,SystemResetWarning,0832.9,4.99,000.00,019.7,019.1,000.0,028.2,021.4,025.4,0000.0,0004.85,0007.48,0004.52
2024-04-19 14:08:00,SystemResetWarning,0832.9,5.00,000.00,019.7,019.1,000.0,028.2,021.4,025.3,0000.0,0004.83,0007.48,0004.49
2024-04-19 14:09:00,SystemResetWarning,0832.8,5.01,000.00,019.7,019.1,000.0,028.2,021.4,025.4,0000.0,0004.79,0007.46,0004.44
2024-04-19 14:10:00,SystemResetWarning,0832.8,5.00,000.00,019.7,019.1,000.0,028.2,021.4,025.5,0000.0,0004.74,0006.61,0004.40
2024-04-19 14:11:00,SystemResetWarning,0832.7,5.00,000.00,019.7,019.1,000.0,028.2,021.4,025.5,0000.0,0004.70,0006.50,0004.36
2024-04-19 14:12:00,SystemResetWarning,0832.8,5.00,000.00,019.7,019.1,000.0,028.2,021.4,025.5,0000.0,0004.68,0006.57,0004.34
2024-04-19 14:13:00,SystemResetWarning,0832.8,4.99,000.00,019.7,019.1,000.0,028.2,021.4,025.5,0000.0,0004.70,0006.87,0004.34
2024-04-19 14:14:00,SystemResetWarning,0832.8,5.00,000.00,019.7,019.1,000.0,028.2,021.4,025.5,0000.0,0004.73,0007.45,0004.36
2024-04-19 14:15:00,SystemResetWarning,0832.7,5.00,000.00,019.7,019.1,000.0,028.2,021.4,025.5,0000.0,0004.77,0007.53,0004.38
2024-04-19 14:16:00,SystemResetWarning,0832.8,4.99,000.00,019.7,019.1,000.0,028.1,021.4,025.5,0000.0,0004.82,0007.67,0004.39
2024-04-19 14:17:00,SystemResetWarning,0832.8,5.00,000.00,019.7,019.1,000.0,028.1,021.4,025.5,0000.0,0004.80,0007.66,0004.37
2024-04-19 14:18:00,SystemResetWarning,0832.9,5.01,000.00,019.6,019.1,000.0,028.1,021.4,025.7,0000.0,0004.77,0007.90,0004.34
2024-04-19 14:19:00,SystemResetWarning,0833.0,5.00,000.00,019.7,019.1,000.0,028.1,021.4,026.4,0000.0,0004.77,0007.96,0004.33
2024-04-19 14:20:00,SystemResetWarning,0833.4,5.01,000.00,019.7,019.1,000.0,028.1,021.4,026.0,0000.0,0004.77,0007.98,0004.32
2024-04-19 14:21:00,SystemResetWarning,0833.0,5.00,000.00,019.6,019.1,000.0,028.1,021.4,025.8,0000.0,0004.79,0008.02,0004.32
2024-04-19 14:22:00,SystemResetWarning,0833.3,5.00,000.00,019.6,019.1,000.0,028.1,021.4,025.8,0000.0,0004.79,0008.09,0004.31
2024-04-19 14:23:00,SystemResetWarning,0833.1,5.00,000.00,019.6,019.1,000.0,028.1,021.4,025.8,0000.0,0004.74,0008.08,0004.27
2024-04-19 14:24:00,SystemResetWarning,0832.8,5.00,000.00,019.6,019.1,000.0,028.1,021.4,025.7,0000.0,0004.65,0008.21,0004.22
2024-04-19 14:25:00,SystemResetWarning,0833.0,5.01,000.00,019.6,019.1,000.0,028.1,021.4,025.7,0000.0,0004.60,0007.85,0004.18
2024-04-19 14:26:00,SystemResetWarning,0832.8,5.01,000.00,019.6,019.1,000.0,028.1,021.4,025.7,0000.0,0004.53,0007.74,0004.13
2024-04-19 14:27:00,SystemResetWarning,0833.2,5.00,000.00,019.6,019.1,000.0,028.1,021.4,025.8,0000.0,0004.47,0007.67,0004.09
2024-04-19 14:28:00,SystemResetWarning,0833.0,5.00,000.00,019.6,019.1,000.0,028.1,021.4,025.7,0000.0,0004.46,0007.71,0004.09
2024-04-19 14:29:00,SystemResetWarning,0833.0,4.99,000.00,019.6,019.1,000.0,028.1,021.4,025.7,0000.0,0004.47,0007.46,0004.09
2024-04-19 14:30:00,SystemResetWarning,0833.0,5.00,000.00,019.6,019.1,000.0,028.1,021.4,025.7,0000.0,0004.44,0007.26,0004.08
2024-04-19 14:31:00,SystemResetWarning,0832.9,5.00,000.00,019.6,019.1,000.0,028.1,021.4,025.7,0000.0,0004.44,0007.29,0004.09
2024-04-19 14:32:00,SystemResetWarning,0833.1,4.99,000.00,019.6,019.1,000.0,028.1,021.4,025.7,0000.0,0004.43,0007.26,0004.09
2024-04-19 14:33:00,SystemResetWarning,0832.9,5.00,000.00,019.6,019.1,000.0,028.1,021.4,025.7,0000.0,0004.44,0007.22,0004.11
2024-04-19 14:34:00,SystemResetWarning,0833.1,5.00,000.00,019.6,019.1,000.0,028.1,021.4,025.7,0000.0,0004.49,0007.30,0004.15
2024-04-19 14:35:00,SystemResetWarning,0833.4,5.00,000.00,019.6,019.1,000.0,028.1,021.4,025.7,0000.0,0004.55,0006.68,0004.18
2024-04-19 14:36:00,SystemResetWarning,0833.4,5.00,000.00,019.6,019.1,000.0,028.1,021.4,025.7,0000.0,0004.60,0006.81,0004.21
2024-04-19 14:37:00,SystemResetWarning,0832.9,5.00,000.00,019.6,019.1,000.0,028.1,021.4,025.7,0000.0,0004.66,0007.16,0004.24
2024-04-19 14:38:00,SystemResetWarning,0832.8,5.01,000.00,019.6,019.1,000.0,028.1,021.4,025.7,0000.0,0004.67,0007.16,0004.25
2024-04-19 14:39:00,SystemResetWarning,0832.8,5.01,000.00,019.6,019.1,000.0,028.1,021.4,025.8,0000.0,0004.68,0007.79,0004.25
2024-04-19 14:40:00,SystemResetWarning,0832.8,5.00,000.00,019.6,019.1,000.0,028.1,021.4,025.8,0000.0,0004.65,0007.96,0004.22
2024-04-19 14:41:00,SystemResetWarning,0832.8,4.99,000.00,019.6,019.1,000.0,028.1,021.4,025.8,0000.0,0004.60,0007.90,0004.18
2024-04-19 14:42:00,SystemResetWarning,0833.1,5.00,000.00,019.6,019.1,000.0,028.1,021.4,025.8,0000.0,0004.52,0007.81,0004.10
2024-04-19 14:43:00,SystemResetWarning,0832.8,5.00,000.00,019.6,019.1,000.0,028.1,021.4,025.7,0000.0,0004.42,0007.70,0004.01
2024-04-19 14:44:00,SystemResetWarning,0832.8,4.99,000.00,019.6,019.0,000.0,028.1,021.4,025.7,0000.0,0004.29,0007.59,0003.90
2024-04-19 14:45:00,SystemResetWarning,0832.7,5.01,000.00,019.6,019.0,000.0,028.1,021.4,025.7,0000.0,0004.12,0007.36,0003.78
2024-04-19 14:46:00,SystemResetWarning,0832.8,5.01,000.00,019.6,019.0,000.0,028.1,021.4,025.7,0000.0,0003.96,0007.05,0003.64
2024-04-19 14:47:00,SystemResetWarning,0832.8,5.00,000.00,019.6,019.0,000.0,028.1,021.4,025.7,0000.0,0003.80,0006.65,0003.52
2024-04-19 14:48:00,SystemResetWarning,0832.8,4.99,000.00,019.6,019.0,000.0,028.1,021.4,025.7,0000.0,0003.63,0006.06,0003.40
2024-04-19 14:49:00,SystemResetWarning,0832.8,5.00,000.00,019.6,019.0,000.0,028.1,021.4,025.7,0000.0,0003.49,0005.72,0003.28
2024-04-19 14:50:00,SystemResetWarning,0832.8,5.01,000.00,019.6,019.0,000.0,028.1,021.4,025.7,0000.0,0003.35,0004.26,0003.16
2024-04-19 14:51:00,SystemResetWarning,0832.8,5.01,000.00,019.6,019.0,000.0,028.1,021.4,025.8,0000.0,0003.24,0003.65,0003.05
2024-04-19 14:52:00,SystemResetWarning,0832.7,5.01,000.00,019.6,019.0,000.0,028.1,021.4,026.4,0000.0,0003.18,0003.55,0002.93
2024-04-19 14:53:00,SystemResetWarning,0832.7,5.00,000.00,019.6,019.0,000.0,028.1,021.4,026.2,0000.0,0003.10,0003.34,0002.84
2024-04-19 14:54:00,SystemResetWarning,0832.7,4.99,000.00,019.6,019.0,000.0,028.1,021.4,026.0,0000.0,0003.00,0003.21,0002.75
2024-04-19 14:55:00,SystemResetWarning,0832.7,4.99,000.00,019.6,019.0,000.0,028.1,021.4,025.9,0000.0,0002.91,0003.03,0002.66
2024-04-19 14:56:00,SystemResetWarning,0832.7,5.00,000.00,019.6,019.0,000.0,028.1,021.4,026.0,0000.0,0002.82,0002.93,0002.58
2024-04-19 14:57:00,SystemResetWarning,0832.6,5.01,000.00,019.6,019.0,000.0,028.1,021.4,026.0,0000.0,0002.74,0002.86,0002.53
2024-04-19 14:58:00,SystemResetWarning,0832.6,5.01,000.00,019.6,019.0,000.0,028.1,021.4,026.1,0000.0,0002.67,0002.75,0002.49
2024-04-19 14:59:00,SystemResetWarning,0832.5,5.01,000.00,019.6,019.0,000.0,028.1,021.4,026.1,0000.0,0002.63,0002.71,0002.46
